Location: Cahas Mountain Overlook
(37.0833°N, 80.1000°W)
Time: 18:37:03
(UTC-04:00)

SR - Pass Details

Date: 16 February 2026
Orbit: 572 x 849 km, 66.7° (Epoch: 12 March)

Event Time Altitude Azimuth Distance (km) Brightness Sun altitude
Rises 13:13:08 0° 344° (NNW) 3,083 ? 39.9°
Reaches altitude 10° 13:15:46 10° 357° (N) 2,212 ? 39.8°
Maximum altitude 13:20:01 26° 54° (NE) 1,448 ? 39.6°
Drops below altitude 10° 13:24:31 10° 111° (ESE) 2,350 ? 39.4°
Sets 13:27:22 0° 123° (ESE) 3,316 ? 39.2°
